Back to catalog

STARLINK-31095

AliveCommunicationsVLEO
NORAD 58683·PAYLOAD·🇺🇸 United States

Launched Dec 29, 2023 from Cape Canaveral Space Force Station

Loading…

Next Passes (next 24 hours)

TLE

FreshSource: CelesTrak SupGP

Epoch: Sep 14, 2026, 15:04 UTC

1 58683C 23211S   26257.62826389 -.00005793  00000+0 -20988-3 0  2577
2 58683  43.0022  98.5623 0001291 257.5465 213.2939 15.27572634    15

Track STARLINK-31095 in real time with AllMySat

Download on the App Store